Decimomannu, Italy

8:08 AM CEST on June 28, 2017 (GMT +0200)
Decimomannu Mil

Weather History for LIED - November, 2012

Change the Weather History Date:

Thursday, November 29, 2012

  Actual Average Record
Temperature  
Mean Temperature 52 °F -  
Max Temperature 57 °F 59 °F 72 °F (2014)
Min Temperature 47 °F 42 °F 32 °F (2013)
Degree Days  
Heating Degree Days 13    
Growing Degree Days 2 (Base 50)    
Moisture  
Dew Point 45 °F    
Average Humidity 78    
Maximum Humidity 87    
Minimum Humidity 58    
Precipitation  
Precipitation 0.08 in 0.08 in - ()
Sea Level Pressure  
Sea Level Pressure 29.44 in    
Wind  
Wind Speed 6 mph ()    
Max Wind Speed 16 mph    
Max Gust Speed 23 mph    
Visibility 4.7 miles    
Events Rain    
Averages and records for this station are not official NWS values.
T = Trace of Precipitation, MM = Missing Value Source: Averaged Metar Reports

Daily Weather History Graph

Daily Weather History Graph

Search for Another Location

Airport or City:

Trip Planner

Search our weather history database for the weather conditions in past years. The results will help you decide how hot, cold, wet, or windy it might be!

Date:

Astronomy

Nov. 29, 2012 Rise Set
Actual Time 7:23 AM CET 5:01 PM CET
Civil Twilight 6:53 AM CET 5:31 PM CET
Nautical Twilight 6:20 AM CET 6:04 PM CET
Astronomical Twilight 5:48 AM CET 6:36 PM CET
Moon 5:51 PM CET (11/29) 7:56 AM CET (11/29)
Length of Visible Light 10h 37m
Length of Day
9h 38m
Full, 99% of the Moon is Illuminated
Nov 29
Full
Dec 6
Last Quarter
Dec 13
New
Dec 20
First Quarter
Dec 28
Full

Hourly Weather History & Observations

Time (CET) Temp. Dew Point Humidity Pressure Visibility Wind Dir Wind Speed Gust Speed Precip Events Conditions
12:55 AM 48.2 °F 44.6 °F 87% 29.39 in 5.0 mi SSE 3.5 mph - N/A Rain Light Rain
1:00 AM 49 °F 44 °F 78% 29.40 in 5 mi SSE 3.5 mph - - Rain Light Rain
1:55 AM 50.0 °F 44.6 °F 82% 29.39 in 5.0 mi West 3.5 mph - N/A Rain Light Rain
2:55 AM 48.2 °F 44.6 °F 87% 29.39 in 5.0 mi NW 2.3 mph - N/A Rain Light Rain
3:55 AM 48.2 °F 44.6 °F 87% 29.39 in 5.0 mi WSW 2.3 mph - N/A Rain Light Rain
4:00 AM 48 °F 44 °F 81% 29.42 in 5 mi WSW 2.3 mph - - Rain Light Rain
4:55 AM 48.2 °F 44.6 °F 87% 29.39 in 5.0 mi North 3.5 mph - N/A   Mostly Cloudy
5:55 AM 48.2 °F 42.8 °F 82% 29.39 in 5.0 mi South 4.6 mph - N/A Rain Light Rain
6:55 AM 50.0 °F 44.6 °F 82% 29.39 in 3.7 mi WSW 9.2 mph - N/A Rain Light Rain
7:00 AM 51 °F 46 °F 75% 29.41 in 4 mi WSW 9.2 mph - - Rain Light Rain
7:55 AM 50.0 °F 44.6 °F 82% 29.42 in 3.1 mi WSW 11.5 mph - N/A Rain Light Rain
9:55 AM 53.6 °F 44.6 °F 72% 29.44 in 3.7 mi West 11.5 mph 23.0 mph N/A Rain Light Rain
10:00 AM 53 °F 45 °F 67% 29.45 in 4 mi West 11.5 mph - - Rain Light Rain
10:55 AM 55.4 °F 48.2 °F 77% 29.44 in 3.7 mi West 13.8 mph - N/A Rain Light Rain
11:55 AM 57.2 °F 48.2 °F 72% 29.44 in 5.0 mi NW 11.5 mph - N/A   Scattered Clouds
12:55 PM 55.4 °F 46.4 °F 72% 29.44 in 5.0 mi WNW 13.8 mph - N/A   Scattered Clouds
1:00 PM 55 °F 46 °F 63% 29.45 in 5 mi WNW 13.8 mph - - Rain Light Rain
1:55 PM 55.4 °F 44.6 °F 67% 29.42 in 5.6 mi West 13.8 mph - N/A   Scattered Clouds
2:55 PM 57.2 °F 44.6 °F 63% 29.42 in 5.6 mi West 16.1 mph - N/A   Scattered Clouds
4:00 PM 54 °F 43 °F 58% 29.47 in 6 mi West 16.1 mph - -   Mist
4:55 PM 53.6 °F 46.4 °F 77% 29.47 in 4.3 mi West 13.8 mph - N/A Rain Light Rain
5:55 PM 51.8 °F 44.6 °F 76% 29.47 in 3.7 mi NW 6.9 mph - N/A   Scattered Clouds
6:55 PM 50.0 °F 46.4 °F 87% 29.47 in 5.0 mi NW 9.2 mph - N/A   Scattered Clouds
7:00 PM 50 °F 47 °F 85% 29.50 in 5 mi NW 9.2 mph - -   Mist
7:55 PM 51.8 °F 46.4 °F 82% 29.47 in 5.0 mi West 6.9 mph - N/A   Scattered Clouds
8:55 PM 50.0 °F 44.6 °F 82% 29.50 in 5.0 mi West 5.8 mph - N/A   Scattered Clouds
9:55 PM 48.2 °F 42.8 °F 82% 29.50 in 4.3 mi WNW 4.6 mph - N/A Rain Light Rain
10:00 PM 48 °F 43 °F 78% 29.53 in 4 mi WNW 4.6 mph - - Rain Light Rain
10:55 PM 50.0 °F 44.6 °F 82% 29.53 in 4.3 mi South 3.5 mph - N/A   Scattered Clouds
11:55 PM 50.0 °F 44.6 °F 82% 29.53 in 6.2 mi WSW 4.6 mph - N/A   Scattered Clouds